Starlink 3843

operational
NORAD ID: 52341 Int'l Des: 2022-045 Owner: SPXS Country: US Constellation: starlink
LEOCIRCULAR

关于 Starlink 3843

正在加载描述...

实时位置

正在加载3D地球...

即将过境

高度历史

Altitude vs Time

uPlot chart will show altitude changes over time

两行轨道根数

1 52341U 22045L 25298.42945507 -.00000062 00000-0 14176-4 0 9992
2 52341 53.2151 96.2776 0001326 85.6432 274.4712 15.08842455195229
Epoch: Oct 25, 2025 • Age: 15 hours

当前状态

高度 544.8 km
速度 7.60 km/s
星下点 50.68°N, 109.92°E
发射日期 Apr 29, 2022
运行时间 3.4 years
类型 internet

技术详情

分类 Payload
质量 297.00 kg
干质量 275.00 kg
总质量 297.00 kg
长度 0.20 m
直径 2.80 m
跨度 9.00 m
形状 Box + pan
制造商 SPXS
平台类型 Starlink
阶段状态 In Orbit
所有者/国家 SPXS/US

大型星座

Loading constellations...